User: anonymous   Login
Location: Melbourne
(37.8170°S, 144.9670°E)
Time: 07:46:50
(UTC+10:00)
Language:

CZ-3 R/B - Orbit

View from above orbital plane
View from above orbital plane
View from above satellite
View from above satellite

Ground track
Ground track

The orbit data is extracted from the following two-line orbital elements,

1 29517U 06048B   15245.07890782  .00099567 -68383-7  10979-2 0  9990
2 29517  28.4847  68.8931 4805598  74.7146  55.4694  6.11090389124403
Epoch (UTC): 02 September 2015 01:53:37
Eccentricity: 0.4805598
inclination: 28.4847°
perigee height: 186 km
apogee height: 12332 km
right ascension of ascending node: 68.8931°
argument of perigee: 74.7146°
revolutions per day: 6.11090389
mean anomaly at epoch: 55.4694°
orbit number at epoch: 12440

The dashed part of the orbit path shows where the satellite is in the earth's shadow,  

DLR